Location: Monroe
(41.9160°N, 83.3980°W)
Time: 00:22:48
(UTC-04:00)

Amateur Radio Satellites - All Passes

Search period start: 01 October 2014 23:52
Search period end: 02 October 2014 23:52
Location: Monroe, 41.9160°N, 83.3980°W

Satellite Date Start Highest point End Downlink Frequencies (MHz)
Time Altitude Azimuth
ISS 01 Oct 23:52:50 23:55:58 37° 333° (NNW) 23:59:06 145.800 FM
KITSAT 1 01 Oct 23:59:34 00:04:01 15° 21° (NNE) 00:08:28 435.175 FM
Saudisat 1A 02 Oct 00:02:36 00:06:52 49° 242° (WSW) 00:11:07 436.775 MHz
ZACube-1 02 Oct 00:41:17 00:41:49 10° 272° (W) 00:42:21 437.345 MHz
ISS 02 Oct 01:31:11 01:33:21 16° 353° (N) 01:35:32 145.800 FM
Oscar 19 02 Oct 01:48:55 01:50:52 12° 89° (E) 01:52:49 437.125 CW, 437.150 USB
KITSAT 1 02 Oct 01:54:18 02:01:57 43° 48° (NE) 02:09:31 435.175 FM
JAS-1B 02 Oct 02:02:38 02:03:34 10° 89° (E) 02:04:30 435.800 - 435.900 CW/SSB
Oscar 16 02 Oct 02:28:04 02:32:37 31° 96° (E) 02:37:07 437.025 USB, Beacon 2401.1428
AO-Echo 02 Oct 02:31:13 02:34:24 17° 92° (E) 02:37:36 ?
RS-15 02 Oct 02:36:51 02:47:25 54° 112° (ESE) 02:57:51 29.354 - 29.394 USB, Beacon 29.352 USB
AO-27 02 Oct 02:40:14 02:43:31 17° 91° (E) 02:46:47 436.795 MHz FM
ISS 02 Oct 03:08:31 03:10:59 19° 14° (NNE) 03:13:27 145.800 FM
Gurwin Techsat 1B 02 Oct 03:10:13 03:13:23 16° 90° (E) 03:16:31 435.225 FM
Oscar 19 02 Oct 03:25:39 03:30:49 79° 286° (WNW) 03:35:55 437.125 CW, 437.150 USB
SO-50 02 Oct 03:30:36 03:34:26 23° 43° (NE) 03:38:19 436.795 FM
TMSAT-1 02 Oct 03:37:37 03:41:36 21° 93° (E) 03:45:33 436.925 FM
ITAMSAT 1 02 Oct 03:39:29 03:44:40 59° 101° (E) 03:49:49 435.822 SSB
Uribyol 2 02 Oct 03:40:07 03:45:19 64° 102° (ESE) 03:50:30 436.500 FM
JAS-1B 02 Oct 03:49:15 03:54:58 89° 105° (ESE) 04:01:12 435.800 - 435.900 CW/SSB
KITSAT 1 02 Oct 03:49:47 03:57:26 49° 248° (WSW) 04:05:04 435.175 FM
Oscar 16 02 Oct 04:07:22 04:11:56 33° 293° (WNW) 04:16:28 437.025 USB, Beacon 2401.1428
AO-Echo 02 Oct 04:08:33 04:13:30 60° 287° (WNW) 04:18:35 ?
AO-27 02 Oct 04:18:16 04:23:26 62° 288° (WNW) 04:28:35 436.795 MHz FM
ISS 02 Oct 04:44:50 04:48:09 67° 33° (NNE) 04:51:27 145.800 FM
OPAL 02 Oct 04:48:31 04:53:15 37° 66° (ENE) 04:58:01 ?
Gurwin Techsat 1B 02 Oct 04:48:32 04:53:48 66° 287° (WNW) 04:59:03 435.225 FM
RS-15 02 Oct 04:49:25 04:59:55 49° 316° (NW) 05:10:27 29.354 - 29.394 USB, Beacon 29.352 USB
Oscar 19 02 Oct 05:08:07 05:09:17 11° 303° (WNW) 05:10:26 437.125 CW, 437.150 USB
SO-50 02 Oct 05:10:36 05:15:19 55° 241° (WSW) 05:20:05 436.795 FM
MaSat-1 02 Oct 05:14:18 05:17:46 20° 105° (ESE) 05:21:09 437.345 MHz
TMSAT-1 02 Oct 05:16:39 05:21:46 49° 289° (WNW) 05:26:51 436.925 FM
ITAMSAT 1 02 Oct 05:20:06 05:23:41 19° 298° (WNW) 05:27:17 435.822 SSB
Uribyol 2 02 Oct 05:20:51 05:24:16 18° 299° (WNW) 05:27:41 436.500 FM
Uosat F 02 Oct 05:31:01 05:35:44 38° 98° (E) 05:40:25 435.120 FM
UOSAT-12 02 Oct 05:32:57 05:37:05 29° 46° (NE) 05:41:11 437.025 FM, 437.400 FM
AO-7 02 Oct 05:41:48 05:49:57 57° 103° (ESE) 05:58:04 29.400 - 29.500 MHz
JAS-1B 02 Oct 05:42:26 05:44:57 13° 303° (WNW) 05:47:30 435.800 - 435.900 CW/SSB
STRAND 1 02 Oct 05:55:19 05:56:58 12° 57° (ENE) 05:58:38 ?
ISS 02 Oct 06:22:32 06:24:29 15° 229° (SW) 06:26:26 145.800 FM
OPAL 02 Oct 06:27:41 06:32:09 29° 262° (W) 06:36:40 ?
MaSat-1 02 Oct 06:49:15 06:53:56 49° 300° (WNW) 06:58:23 437.345 MHz
JAS-2 02 Oct 06:58:39 07:05:17 55° 100° (E) 07:12:37 435.800 - 435.900 CW/SSB, 435.910 FM
RS-15 02 Oct 07:07:47 07:15:53 23° 348° (NNW) 07:24:05 29.354 - 29.394 USB, Beacon 29.352 USB
Uosat F 02 Oct 07:10:12 07:14:19 26° 295° (WNW) 07:18:26 435.120 FM
UOSAT-12 02 Oct 07:12:57 07:17:19 38° 244° (WSW) 07:21:36 437.025 FM, 437.400 FM
Hamsat 02 Oct 07:15:00 07:19:09 56° 100° (E) 07:23:14 145.90 MHz
STRAND 1 02 Oct 07:30:15 07:35:20 85° 75° (ENE) 07:40:29 ?
AO-7 02 Oct 07:35:08 07:42:21 35° 302° (WNW) 07:49:35 29.400 - 29.500 MHz
SO-67 02 Oct 08:39:08 08:42:36 74° 101° (ESE) 08:46:02 435.3500 MHz FM
JAS-2 02 Oct 08:44:23 08:50:02 30° 295° (WNW) 08:56:13 435.800 - 435.900 CW/SSB, 435.910 FM
HO-68 02 Oct 08:52:06 08:52:37 10° 85° (E) 08:53:08 435.675 MHz FM
Hamsat 02 Oct 08:52:35 08:54:37 13° 297° (WNW) 08:56:39 145.90 MHz
PCSat 02 Oct 08:56:34 09:00:08 18° 105° (ESE) 09:03:43 145.825 MHz
STRAND 1 02 Oct 09:13:50 09:15:11 11° 272° (W) 09:16:32 ?
RS-15 02 Oct 09:24:22 09:33:23 27° 24° (NNE) 09:42:35 29.354 - 29.394 USB, Beacon 29.352 USB
UKube-1 02 Oct 10:08:34 10:11:07 15° 92° (E) 10:13:40 145.840 MHz, 145.915 MHz
Sapphire 02 Oct 10:12:07 10:17:29 76° 117° (ESE) 10:22:55 437.095 MHz 1200 baud AX-25 AFSK
HO-68 02 Oct 10:34:23 10:41:34 67° 103° (ESE) 10:48:42 435.675 MHz FM
PCSat 02 Oct 10:37:38 10:43:00 64° 302° (WNW) 10:48:24 145.825 MHz
ZACube-1 02 Oct 10:50:48 10:53:32 16° 91° (E) 10:56:13 437.345 MHz
Oscar 11 02 Oct 11:12:31 11:16:49 62° 101° (E) 11:21:05 145.825 FM, Beacon 2401.500 USB
RS-15 02 Oct 11:37:04 11:48:11 70° 53° (NE) 11:59:44 29.354 - 29.394 USB, Beacon 29.352 USB
FUNcube-1 02 Oct 11:40:15 11:44:43 52° 99° (E) 11:49:02 145.950 - 145.970 MHz USB
UKube-1 02 Oct 11:43:22 11:47:35 49° 288° (WNW) 11:51:48 145.840 MHz, 145.915 MHz
Sapphire 02 Oct 11:57:37 12:01:31 20° 317° (NW) 12:05:26 437.095 MHz 1200 baud AX-25 AFSK
HO-68 02 Oct 12:23:02 12:28:41 26° 302° (WNW) 12:34:20 435.675 MHz FM
PCSat 02 Oct 12:25:02 12:27:31 13° 323° (NW) 12:30:01 145.825 MHz
ZACube-1 02 Oct 12:25:50 12:30:15 50° 287° (WNW) 12:34:33 437.345 MHz
JAS-1B 02 Oct 12:48:25 12:51:39 14° 57° (ENE) 12:54:42 435.800 - 435.900 CW/SSB
Oscar 11 02 Oct 12:50:28 12:52:28 13° 298° (WNW) 12:54:28 145.825 FM, Beacon 2401.500 USB
Oscar 19 02 Oct 13:05:22 13:09:06 20° 63° (ENE) 13:12:51 437.125 CW, 437.150 USB
FUNcube-1 02 Oct 13:17:48 13:20:38 17° 297° (WNW) 13:23:26 145.950 - 145.970 MHz USB
ITAMSAT 1 02 Oct 13:22:10 13:24:20 13° 58° (ENE) 13:26:30 435.822 SSB
Uribyol 2 02 Oct 13:22:19 13:24:48 14° 59° (ENE) 13:27:17 436.500 FM
AO-Echo 02 Oct 13:44:56 13:48:24 21° 64° (ENE) 13:51:54 ?
Oscar 16 02 Oct 13:45:12 13:50:09 47° 70° (ENE) 13:55:07 437.025 USB, Beacon 2401.1428
RS-15 02 Oct 13:50:13 13:59:46 35° 254° (WSW) 14:09:42 29.354 - 29.394 USB, Beacon 29.352 USB
AO-27 02 Oct 13:58:28 14:02:45 27° 65° (ENE) 14:07:04 436.795 MHz FM
Saudisat 1A 02 Oct 14:09:14 14:13:17 38° 116° (ESE) 14:17:22 436.775 MHz
Gurwin Techsat 1B 02 Oct 14:31:17 14:35:39 27° 65° (ENE) 14:40:02 435.225 FM
JAS-1B 02 Oct 14:34:01 14:41:35 80° 74° (ENE) 14:47:56 435.800 - 435.900 CW/SSB
Oscar 19 02 Oct 14:42:58 14:48:02 53° 260° (W) 14:53:08 437.125 CW, 437.150 USB
AO-7 02 Oct 14:52:24 14:57:38 19° 49° (NE) 15:02:52 29.400 - 29.500 MHz
ITAMSAT 1 02 Oct 14:57:52 15:03:03 90° 261° (W) 15:08:17 435.822 SSB
Uribyol 2 02 Oct 14:58:21 15:03:32 84° 256° (WSW) 15:08:47 436.500 FM
TMSAT-1 02 Oct 14:58:32 15:03:15 34° 68° (ENE) 15:08:00 436.925 FM
MaSat-1 02 Oct 15:04:19 15:07:18 28° 55° (NE) 15:09:55 437.345 MHz
AO-Echo 02 Oct 15:22:27 15:26:53 42° 262° (W) 15:31:23 ?
Oscar 16 02 Oct 15:25:46 15:29:43 22° 267° (W) 15:33:41 437.025 USB, Beacon 2401.1428
AO-27 02 Oct 15:37:16 15:42:05 39° 262° (W) 15:46:56 436.795 MHz FM
Saudisat 1A 02 Oct 15:49:13 15:52:57 26° 314° (NW) 15:56:41 436.775 MHz
Gurwin Techsat 1B 02 Oct 16:10:27 16:15:25 40° 262° (W) 16:20:25 435.225 FM
KITSAT 1 02 Oct 16:24:38 16:30:50 25° 104° (ESE) 16:37:01 435.175 FM
JAS-1B 02 Oct 16:28:05 16:32:37 17° 267° (W) 16:36:47 435.800 - 435.900 CW/SSB
TMSAT-1 02 Oct 16:38:32 16:43:10 31° 264° (W) 16:47:50 436.925 FM
AO-7 02 Oct 16:40:52 16:49:08 77° 69° (ENE) 16:57:25 29.400 - 29.500 MHz
MaSat-1 02 Oct 16:41:51 16:43:16 13° 258° (WSW) 16:44:36 437.345 MHz
ITAMSAT 1 02 Oct 16:42:27 16:43:15 10° 272° (W) 16:44:02 435.822 SSB
Uosat F 02 Oct 16:44:34 16:49:26 56° 72° (ENE) 16:54:20 435.120 FM
Oscar 10/S400 02 Oct 17:02:14 17:19:41 45° 156° (SSE) 17:54:42 145.825 - 145.975 CW/USB, Beacon 145.810 USB
JAS-2 02 Oct 17:14:05 17:17:47 20° 61° (ENE) 17:21:38 435.800 - 435.900 CW/SSB, 435.910 FM
Sapphire 02 Oct 17:18:10 17:20:41 13° 37° (NE) 17:23:12 437.095 MHz 1200 baud AX-25 AFSK
PCSat 02 Oct 17:42:43 17:46:39 20° 43° (NE) 17:50:34 145.825 MHz
Hamsat 02 Oct 18:08:27 18:12:31 42° 72° (ENE) 18:16:35 145.90 MHz
KITSAT 1 02 Oct 18:17:22 18:25:27 74° 303° (WNW) 18:33:34 435.175 FM
Uosat F 02 Oct 18:25:20 18:28:34 17° 268° (W) 18:31:48 435.120 FM
OPAL 02 Oct 18:36:25 18:41:31 73° 105° (ESE) 18:46:31 ?
AO-7 02 Oct 18:36:29 18:42:40 23° 267° (W) 18:48:53 29.400 - 29.500 MHz
JAS-2 02 Oct 18:57:23 19:02:25 53° 261° (W) 19:07:46 435.800 - 435.900 CW/SSB, 435.910 FM
Sapphire 02 Oct 18:59:48 19:05:13 64° 58° (ENE) 19:10:35 437.095 MHz 1200 baud AX-25 AFSK
SO-67 02 Oct 19:12:37 19:15:27 24° 71° (ENE) 19:18:18 435.3500 MHz FM
HO-68 02 Oct 19:22:49 19:23:50 10° 46° (NE) 19:24:51 435.675 MHz FM
PCSat 02 Oct 19:25:14 19:30:40 75° 243° (WSW) 19:36:04 145.825 MHz
SO-50 02 Oct 19:25:51 19:30:06 44° 117° (ESE) 19:34:28 436.795 FM
STRAND 1 02 Oct 19:40:59 19:45:23 28° 95° (E) 19:49:46 ?
Hamsat 02 Oct 19:45:47 19:48:39 17° 268° (W) 19:51:31 145.90 MHz
KITSAT 1 02 Oct 20:16:18 20:22:20 22° 327° (NNW) 20:28:23 435.175 FM
OPAL 02 Oct 20:16:51 20:19:46 16° 302° (WNW) 20:22:40 ?
Sapphire 02 Oct 20:44:30 20:48:05 18° 255° (WSW) 20:51:39 437.095 MHz 1200 baud AX-25 AFSK
SO-67 02 Oct 20:46:00 20:48:27 18° 266° (W) 20:50:54 435.3500 MHz FM
PANSAT 02 Oct 20:50:36 20:51:28 11° 175° (S) 20:52:20 not established
HO-68 02 Oct 21:03:04 21:09:55 52° 67° (ENE) 21:16:48 435.675 MHz FM
UKube-1 02 Oct 21:04:58 21:07:26 15° 63° (ENE) 21:09:54 145.840 MHz, 145.915 MHz
SO-50 02 Oct 21:07:07 21:10:51 25° 316° (NW) 21:14:40 436.795 FM
STRAND 1 02 Oct 21:19:56 21:24:37 36° 292° (WNW) 21:29:17 ?
UOSAT-12 02 Oct 21:23:49 21:28:21 60° 119° (ESE) 21:33:00 437.025 FM, 437.400 FM
ISS 02 Oct 21:28:05 21:30:22 17° 132° (SE) 21:32:38 145.800 FM
ZACube-1 02 Oct 21:48:07 21:50:41 15° 62° (ENE) 21:53:16 437.345 MHz
Oscar 11 02 Oct 22:07:40 22:11:53 51° 73° (ENE) 22:16:07 145.825 FM, Beacon 2401.500 USB
KITSAT 1 02 Oct 22:18:59 22:21:32 12° 357° (N) 22:24:05 435.175 FM
Saudisat 1A 02 Oct 22:35:24 22:39:29 35° 49° (NE) 22:43:33 436.775 MHz
FUNcube-1 02 Oct 22:36:38 22:40:56 44° 71° (ENE) 22:45:20 145.950 - 145.970 MHz USB
UKube-1 02 Oct 22:38:56 22:43:10 54° 259° (W) 22:47:27 145.840 MHz, 145.915 MHz
HO-68 02 Oct 22:51:42 22:57:51 31° 265° (W) 23:04:03 435.675 MHz FM
ISS 02 Oct 23:03:29 23:06:46 58° 329° (NNW) 23:10:03 145.800 FM
UOSAT-12 02 Oct 23:05:21 23:08:54 21° 318° (NW) 23:12:29 437.025 FM, 437.400 FM
ZACube-1 02 Oct 23:22:03 23:26:33 62° 260° (W) 23:31:09 437.345 MHz
Oscar 11 02 Oct 23:45:54 23:48:22 15° 269° (W) 23:50:49 145.825 FM, Beacon 2401.500 USB
